This demonstration page uses our WeatherBlox Daily Observations layout. Learn more.

Left ArrowRight Arrow

34.74481, -87.66753

Hourly Observations for March 10, 2021

Temp ( °F °C ) Dew Point ( °F °C ) Humidity (%) Winds ( mph kmh ) Pressure ( in mb ) Visibility ( mi km ) Precip ( " mm )
12:53 am 00:53 Clear 51 10.6 33 0.6 50 50 SE 6 9 30.31 1026 7 11 0.00 0.00
1:53 am 01:53 Clear 51 10.6 33 0.6 50 50 SE 7 11 30.30 1026 8 13 0.00 0.00
2:53 am 02:53 Clear 52 11.1 34 1.1 50 50 SSE 7 11 30.28 1026 9 14 0.00 0.00
3:53 am 03:53 Clear 52 11.1 35 1.7 53 53 SSE 6 9 30.29 1026 10 16 0.00 0.00
4:53 am 04:53 Clear 50 10 37 2.8 61 61 SSE 7 11 30.32 1027 10 16 0.00 0.00
5:53 am 05:53 Clear 49 9.4 38 3.3 66 66 SSE 6 9 30.33 1027 10 16 0.00 0.00
6:53 am 06:53 Sunny 50 10 41 5 71 71 SE 7 11 30.35 1028 9 14 0.00 0.00
7:53 am 07:53 Sunny 56 13.3 44 6.7 65 65 SSE 8 13 30.37 1028 10 16 0.00 0.00
8:53 am 08:53 Sunny 62 16.7 46 7.8 56 56 S 10 17 30.37 1028 10 16 0.00 0.00
9:53 am 09:53 Sunny 68 20 46 7.8 45 45 SSW 16 26 30.36 1028 10 16 0.00 0.00
10:53 am 10:53 Sunny 70 21.1 46 7.8 42 42 S 16 26 30.35 1028 10 16 0.00 0.00
11:53 am 11:53 Sunny 71 21.7 47 8.3 42 42 SSW 10 17 30.32 1027 10 16 0.00 0.00
12:53 pm 12:53 Sunny 72 22.2 46 7.8 40 40 S 14 22 30.28 1025 10 16 0.00 0.00
1:53 pm 13:53 Sunny 74 23.3 46 7.8 37 37 SW 18 30 30.25 1025 10 16 0.00 0.00
2:53 pm 14:53 Sunny 74 23.3 45 7.2 36 36 S 15 24 30.22 1023 10 16 0.00 0.00
3:53 pm 15:53 Sunny 75 23.9 46 7.8 36 36 S 14 22 30.21 1023 10 16 0.00 0.00
4:53 pm 16:53 Partly Cloudy 73 22.8 46 7.8 38 38 S 10 17 30.21 1023 10 16 0.00 0.00
5:53 pm 17:53 Mostly Sunny 70 21.1 44 6.7 39 39 S 10 17 30.22 1023 10 16 0.00 0.00
6:53 pm 18:53 Clear 67 19.4 43 6.1 42 42 S 8 13 30.24 1024 10 16 0.00 0.00
7:53 pm 19:53 Clear 65 18.3 45 7.2 49 49 SSE 8 13 30.24 1024 10 16 0.00 0.00
8:53 pm 20:53 Clear 64 17.8 45 7.2 50 50 S 7 11 30.25 1024 10 16 0.00 0.00
9:53 pm 21:53 Clear 64 17.8 46 7.8 52 52 S 7 11 30.24 1024 10 16 0.00 0.00
10:53 pm 22:53 Clear 64 17.8 46 7.8 52 52 S 8 13 30.24 1024 10 16 0.00 0.00
11:53 pm 23:53 Clear 64 17.8 46 7.8 52 52 S 10 17 30.25 1024 10 16 0.00 0.00

Powered by AerisWeather